<?xml version="1.0" encoding="utf-8"?>
<gpx xmlns:xsi="http://www.w3.org/2001/XMLSchema-instance" xmlns:xsd="http://www.w3.org/2001/XMLSchema" version="1.1" creator="Shapelink.com" xmlns="http://www.topografix.com/GPX/1/1" xmlns:gpxtpx="http://www.garmin.com/xmlschemas/TrackPointExtension/v1">
  <metadata>
    <name>Löpning 4.75 km, 2013-09-10</name>
    <desc></desc>
    <author><name>Mattias Eriksson</name></author> 
    <time>1970-01-01T01:00:00Z</time>
  </metadata>
  <trk>
    <name>Löpning 4.75 km, 2013-09-10</name>
    <trkseg>
      <trkpt lat="56.834416" lon="13.929452">
        <ele>146</ele>
        <time>1970-01-01T01:00:00Z</time>
      </trkpt>
      <trkpt lat="56.834383" lon="13.929171">
        <ele>146</ele>
        <time>1970-01-01T01:00:00Z</time>
      </trkpt>
      <trkpt lat="56.834362" lon="13.928982">
        <ele>146</ele>
        <time>1970-01-01T01:00:00Z</time>
      </trkpt>
      <trkpt lat="56.834318" lon="13.928824">
        <ele>146</ele>
        <time>1970-01-01T01:00:00Z</time>
      </trkpt>
      <trkpt lat="56.834247" lon="13.928709">
        <ele>146</ele>
        <time>1970-01-01T01:00:00Z</time>
      </trkpt>
      <trkpt lat="56.8342" lon="13.928549">
        <ele>146.091</ele>
        <time>1970-01-01T01:00:00Z</time>
      </trkpt>
      <trkpt lat="56.834159" lon="13.928366">
        <ele>146.182</ele>
        <time>1970-01-01T01:00:00Z</time>
      </trkpt>
      <trkpt lat="56.834106" lon="13.92824">
        <ele>146.273</ele>
        <time>1970-01-01T01:00:00Z</time>
      </trkpt>
      <trkpt lat="56.83405" lon="13.928114">
        <ele>146.364</ele>
        <time>1970-01-01T01:00:00Z</time>
      </trkpt>
      <trkpt lat="56.833985" lon="13.927983">
        <ele>146.455</ele>
        <time>1970-01-01T01:00:00Z</time>
      </trkpt>
      <trkpt lat="56.833927" lon="13.927873">
        <ele>146.545</ele>
        <time>1970-01-01T01:00:00Z</time>
      </trkpt>
      <trkpt lat="56.833866" lon="13.927745">
        <ele>146.727</ele>
        <time>1970-01-01T01:00:00Z</time>
      </trkpt>
      <trkpt lat="56.833842" lon="13.927592">
        <ele>146.909</ele>
        <time>1970-01-01T01:00:00Z</time>
      </trkpt>
      <trkpt lat="56.833911" lon="13.927461">
        <ele>147.091</ele>
        <time>1970-01-01T01:00:00Z</time>
      </trkpt>
      <trkpt lat="56.833972" lon="13.927352">
        <ele>147.273</ele>
        <time>1970-01-01T01:00:00Z</time>
      </trkpt>
      <trkpt lat="56.834043" lon="13.927222">
        <ele>147.455</ele>
        <time>1970-01-01T01:00:00Z</time>
      </trkpt>
      <trkpt lat="56.834123" lon="13.927089">
        <ele>147.545</ele>
        <time>1970-01-01T01:00:00Z</time>
      </trkpt>
      <trkpt lat="56.834182" lon="13.926987">
        <ele>147.636</ele>
        <time>1970-01-01T01:00:00Z</time>
      </trkpt>
      <trkpt lat="56.834257" lon="13.92685">
        <ele>147.818</ele>
        <time>1970-01-01T01:00:00Z</time>
      </trkpt>
      <trkpt lat="56.834317" lon="13.926735">
        <ele>148</ele>
        <time>1970-01-01T01:00:00Z</time>
      </trkpt>
      <trkpt lat="56.834376" lon="13.926619">
        <ele>148.182</ele>
        <time>1970-01-01T01:00:00Z</time>
      </trkpt>
      <trkpt lat="56.834433" lon="13.926484">
        <ele>148.727</ele>
        <time>1970-01-01T01:00:00Z</time>
      </trkpt>
      <trkpt lat="56.834497" lon="13.926369">
        <ele>149.182</ele>
        <time>1970-01-01T01:00:00Z</time>
      </trkpt>
      <trkpt lat="56.83456" lon="13.926274">
        <ele>149.636</ele>
        <time>1970-01-01T01:00:00Z</time>
      </trkpt>
      <trkpt lat="56.834559" lon="13.926109">
        <ele>150.182</ele>
        <time>1970-01-01T01:00:00Z</time>
      </trkpt>
      <trkpt lat="56.834561" lon="13.925926">
        <ele>150.727</ele>
        <time>1970-01-01T01:00:00Z</time>
      </trkpt>
      <trkpt lat="56.834628" lon="13.925785">
        <ele>151.273</ele>
        <time>1970-01-01T01:00:00Z</time>
      </trkpt>
      <trkpt lat="56.834684" lon="13.925678">
        <ele>151.818</ele>
        <time>1970-01-01T01:00:00Z</time>
      </trkpt>
      <trkpt lat="56.83476" lon="13.925546">
        <ele>152.364</ele>
        <time>1970-01-01T01:00:00Z</time>
      </trkpt>
      <trkpt lat="56.834826" lon="13.925404">
        <ele>152.818</ele>
        <time>1970-01-01T01:00:00Z</time>
      </trkpt>
      <trkpt lat="56.834879" lon="13.925244">
        <ele>153.273</ele>
        <time>1970-01-01T01:00:00Z</time>
      </trkpt>
      <trkpt lat="56.834874" lon="13.925062">
        <ele>153.727</ele>
        <time>1970-01-01T01:00:00Z</time>
      </trkpt>
      <trkpt lat="56.83485" lon="13.924892">
        <ele>153.818</ele>
        <time>1970-01-01T01:00:00Z</time>
      </trkpt>
      <trkpt lat="56.834828" lon="13.924725">
        <ele>153.909</ele>
        <time>1970-01-01T01:00:00Z</time>
      </trkpt>
      <trkpt lat="56.834796" lon="13.924544">
        <ele>154</ele>
        <time>1970-01-01T01:00:00Z</time>
      </trkpt>
      <trkpt lat="56.834754" lon="13.924396">
        <ele>153.909</ele>
        <time>1970-01-01T01:00:00Z</time>
      </trkpt>
      <trkpt lat="56.834715" lon="13.924252">
        <ele>153.818</ele>
        <time>1970-01-01T01:00:00Z</time>
      </trkpt>
      <trkpt lat="56.834695" lon="13.924086">
        <ele>153.727</ele>
        <time>1970-01-01T01:00:00Z</time>
      </trkpt>
      <trkpt lat="56.834658" lon="13.923924">
        <ele>153.636</ele>
        <time>1970-01-01T01:00:00Z</time>
      </trkpt>
      <trkpt lat="56.834642" lon="13.923757">
        <ele>153.545</ele>
        <time>1970-01-01T01:00:00Z</time>
      </trkpt>
      <trkpt lat="56.83459" lon="13.923594">
        <ele>153.455</ele>
        <time>1970-01-01T01:00:00Z</time>
      </trkpt>
      <trkpt lat="56.834551" lon="13.923429">
        <ele>153.364</ele>
        <time>1970-01-01T01:00:00Z</time>
      </trkpt>
      <trkpt lat="56.834531" lon="13.923275">
        <ele>153.273</ele>
        <time>1970-01-01T01:00:00Z</time>
      </trkpt>
      <trkpt lat="56.834504" lon="13.923132">
        <ele>153.182</ele>
        <time>1970-01-01T01:00:00Z</time>
      </trkpt>
      <trkpt lat="56.834479" lon="13.922984">
        <ele>153.091</ele>
        <time>1970-01-01T01:00:00Z</time>
      </trkpt>
      <trkpt lat="56.834451" lon="13.922823">
        <ele>153</ele>
        <time>1970-01-01T01:00:00Z</time>
      </trkpt>
      <trkpt lat="56.834427" lon="13.922675">
        <ele>153</ele>
        <time>1970-01-01T01:00:00Z</time>
      </trkpt>
      <trkpt lat="56.834385" lon="13.9225">
        <ele>153</ele>
        <time>1970-01-01T01:00:00Z</time>
      </trkpt>
      <trkpt lat="56.834362" lon="13.922336">
        <ele>153</ele>
        <time>1970-01-01T01:00:00Z</time>
      </trkpt>
      <trkpt lat="56.834344" lon="13.92218">
        <ele>153</ele>
        <time>1970-01-01T01:00:00Z</time>
      </trkpt>
      <trkpt lat="56.834312" lon="13.922013">
        <ele>152.909</ele>
        <time>1970-01-01T01:00:00Z</time>
      </trkpt>
      <trkpt lat="56.834273" lon="13.921852">
        <ele>152.818</ele>
        <time>1970-01-01T01:00:00Z</time>
      </trkpt>
      <trkpt lat="56.834258" lon="13.921673">
        <ele>152.727</ele>
        <time>1970-01-01T01:00:00Z</time>
      </trkpt>
      <trkpt lat="56.834225" lon="13.921494">
        <ele>152.636</ele>
        <time>1970-01-01T01:00:00Z</time>
      </trkpt>
      <trkpt lat="56.834193" lon="13.921349">
        <ele>152.545</ele>
        <time>1970-01-01T01:00:00Z</time>
      </trkpt>
      <trkpt lat="56.834161" lon="13.921194">
        <ele>152.455</ele>
        <time>1970-01-01T01:00:00Z</time>
      </trkpt>
      <trkpt lat="56.834129" lon="13.921055">
        <ele>152.364</ele>
        <time>1970-01-01T01:00:00Z</time>
      </trkpt>
      <trkpt lat="56.834108" lon="13.920912">
        <ele>152.273</ele>
        <time>1970-01-01T01:00:00Z</time>
      </trkpt>
      <trkpt lat="56.834104" lon="13.920762">
        <ele>152.182</ele>
        <time>1970-01-01T01:00:00Z</time>
      </trkpt>
      <trkpt lat="56.834069" lon="13.920579">
        <ele>152.091</ele>
        <time>1970-01-01T01:00:00Z</time>
      </trkpt>
      <trkpt lat="56.834029" lon="13.920401">
        <ele>152</ele>
        <time>1970-01-01T01:00:00Z</time>
      </trkpt>
      <trkpt lat="56.834003" lon="13.920222">
        <ele>152</ele>
        <time>1970-01-01T01:00:00Z</time>
      </trkpt>
      <trkpt lat="56.833974" lon="13.920076">
        <ele>151.909</ele>
        <time>1970-01-01T01:00:00Z</time>
      </trkpt>
      <trkpt lat="56.833942" lon="13.919902">
        <ele>151.818</ele>
        <time>1970-01-01T01:00:00Z</time>
      </trkpt>
      <trkpt lat="56.833896" lon="13.919727">
        <ele>151.727</ele>
        <time>1970-01-01T01:00:00Z</time>
      </trkpt>
      <trkpt lat="56.83386" lon="13.919591">
        <ele>151.636</ele>
        <time>1970-01-01T01:00:00Z</time>
      </trkpt>
      <trkpt lat="56.833807" lon="13.919432">
        <ele>151.545</ele>
        <time>1970-01-01T01:00:00Z</time>
      </trkpt>
      <trkpt lat="56.833779" lon="13.919256">
        <ele>151.455</ele>
        <time>1970-01-01T01:00:00Z</time>
      </trkpt>
      <trkpt lat="56.833757" lon="13.91907">
        <ele>151.364</ele>
        <time>1970-01-01T01:00:00Z</time>
      </trkpt>
      <trkpt lat="56.833743" lon="13.918884">
        <ele>151.273</ele>
        <time>1970-01-01T01:00:00Z</time>
      </trkpt>
      <trkpt lat="56.833713" lon="13.918715">
        <ele>151.182</ele>
        <time>1970-01-01T01:00:00Z</time>
      </trkpt>
      <trkpt lat="56.83369" lon="13.918539">
        <ele>151.091</ele>
        <time>1970-01-01T01:00:00Z</time>
      </trkpt>
      <trkpt lat="56.833652" lon="13.918356">
        <ele>151</ele>
        <time>1970-01-01T01:00:00Z</time>
      </trkpt>
      <trkpt lat="56.833624" lon="13.918216">
        <ele>151</ele>
        <time>1970-01-01T01:00:00Z</time>
      </trkpt>
      <trkpt lat="56.83364" lon="13.918047">
        <ele>151</ele>
        <time>1970-01-01T01:00:00Z</time>
      </trkpt>
      <trkpt lat="56.833632" lon="13.917869">
        <ele>151</ele>
        <time>1970-01-01T01:00:00Z</time>
      </trkpt>
      <trkpt lat="56.833595" lon="13.917716">
        <ele>151</ele>
        <time>1970-01-01T01:00:00Z</time>
      </trkpt>
      <trkpt lat="56.833572" lon="13.917567">
        <ele>151</ele>
        <time>1970-01-01T01:00:00Z</time>
      </trkpt>
      <trkpt lat="56.833574" lon="13.917373">
        <ele>151</ele>
        <time>1970-01-01T01:00:00Z</time>
      </trkpt>
      <trkpt lat="56.833564" lon="13.917221">
        <ele>151</ele>
        <time>1970-01-01T01:00:00Z</time>
      </trkpt>
      <trkpt lat="56.833564" lon="13.917065">
        <ele>151.182</ele>
        <time>1970-01-01T01:00:00Z</time>
      </trkpt>
      <trkpt lat="56.833569" lon="13.916907">
        <ele>151.364</ele>
        <time>1970-01-01T01:00:00Z</time>
      </trkpt>
      <trkpt lat="56.833558" lon="13.916745">
        <ele>151.545</ele>
        <time>1970-01-01T01:00:00Z</time>
      </trkpt>
      <trkpt lat="56.833565" lon="13.916564">
        <ele>151.727</ele>
        <time>1970-01-01T01:00:00Z</time>
      </trkpt>
      <trkpt lat="56.833583" lon="13.916389">
        <ele>151.909</ele>
        <time>1970-01-01T01:00:00Z</time>
      </trkpt>
      <trkpt lat="56.833592" lon="13.916238">
        <ele>152.182</ele>
        <time>1970-01-01T01:00:00Z</time>
      </trkpt>
      <trkpt lat="56.833605" lon="13.916068">
        <ele>152.455</ele>
        <time>1970-01-01T01:00:00Z</time>
      </trkpt>
      <trkpt lat="56.833622" lon="13.915909">
        <ele>152.727</ele>
        <time>1970-01-01T01:00:00Z</time>
      </trkpt>
      <trkpt lat="56.833645" lon="13.915755">
        <ele>153</ele>
        <time>1970-01-01T01:00:00Z</time>
      </trkpt>
      <trkpt lat="56.833686" lon="13.915612">
        <ele>153.273</ele>
        <time>1970-01-01T01:00:00Z</time>
      </trkpt>
      <trkpt lat="56.833715" lon="13.91547">
        <ele>153.545</ele>
        <time>1970-01-01T01:00:00Z</time>
      </trkpt>
      <trkpt lat="56.833752" lon="13.915339">
        <ele>153.818</ele>
        <time>1970-01-01T01:00:00Z</time>
      </trkpt>
      <trkpt lat="56.833794" lon="13.915202">
        <ele>154.091</ele>
        <time>1970-01-01T01:00:00Z</time>
      </trkpt>
      <trkpt lat="56.833829" lon="13.915061">
        <ele>154.364</ele>
        <time>1970-01-01T01:00:00Z</time>
      </trkpt>
      <trkpt lat="56.833873" lon="13.914929">
        <ele>154.636</ele>
        <time>1970-01-01T01:00:00Z</time>
      </trkpt>
      <trkpt lat="56.833919" lon="13.914804">
        <ele>154.909</ele>
        <time>1970-01-01T01:00:00Z</time>
      </trkpt>
      <trkpt lat="56.834004" lon="13.914666">
        <ele>155.091</ele>
        <time>1970-01-01T01:00:00Z</time>
      </trkpt>
      <trkpt lat="56.834056" lon="13.914541">
        <ele>155.364</ele>
        <time>1970-01-01T01:00:00Z</time>
      </trkpt>
      <trkpt lat="56.834118" lon="13.914387">
        <ele>155.636</ele>
        <time>1970-01-01T01:00:00Z</time>
      </trkpt>
      <trkpt lat="56.834177" lon="13.914238">
        <ele>155.909</ele>
        <time>1970-01-01T01:00:00Z</time>
      </trkpt>
      <trkpt lat="56.83423" lon="13.914083">
        <ele>156.182</ele>
        <time>1970-01-01T01:00:00Z</time>
      </trkpt>
      <trkpt lat="56.834289" lon="13.913953">
        <ele>156.455</ele>
        <time>1970-01-01T01:00:00Z</time>
      </trkpt>
      <trkpt lat="56.834342" lon="13.913812">
        <ele>156.727</ele>
        <time>1970-01-01T01:00:00Z</time>
      </trkpt>
      <trkpt lat="56.834403" lon="13.913674">
        <ele>157.091</ele>
        <time>1970-01-01T01:00:00Z</time>
      </trkpt>
      <trkpt lat="56.834459" lon="13.913549">
        <ele>157.455</ele>
        <time>1970-01-01T01:00:00Z</time>
      </trkpt>
      <trkpt lat="56.834522" lon="13.913418">
        <ele>157.818</ele>
        <time>1970-01-01T01:00:00Z</time>
      </trkpt>
      <trkpt lat="56.834587" lon="13.913322">
        <ele>158.182</ele>
        <time>1970-01-01T01:00:00Z</time>
      </trkpt>
      <trkpt lat="56.834641" lon="13.913153">
        <ele>158.545</ele>
        <time>1970-01-01T01:00:00Z</time>
      </trkpt>
      <trkpt lat="56.834688" lon="13.913016">
        <ele>158.818</ele>
        <time>1970-01-01T01:00:00Z</time>
      </trkpt>
      <trkpt lat="56.834742" lon="13.912842">
        <ele>159.091</ele>
        <time>1970-01-01T01:00:00Z</time>
      </trkpt>
      <trkpt lat="56.834803" lon="13.912682">
        <ele>159.364</ele>
        <time>1970-01-01T01:00:00Z</time>
      </trkpt>
      <trkpt lat="56.834857" lon="13.912537">
        <ele>159.636</ele>
        <time>1970-01-01T01:00:00Z</time>
      </trkpt>
      <trkpt lat="56.834925" lon="13.912415">
        <ele>159.909</ele>
        <time>1970-01-01T01:00:00Z</time>
      </trkpt>
      <trkpt lat="56.834975" lon="13.912271">
        <ele>160</ele>
        <time>1970-01-01T01:00:00Z</time>
      </trkpt>
      <trkpt lat="56.835028" lon="13.912145">
        <ele>160</ele>
        <time>1970-01-01T01:00:00Z</time>
      </trkpt>
      <trkpt lat="56.835093" lon="13.912045">
        <ele>159.818</ele>
        <time>1970-01-01T01:00:00Z</time>
      </trkpt>
      <trkpt lat="56.835175" lon="13.912001">
        <ele>159.636</ele>
        <time>1970-01-01T01:00:00Z</time>
      </trkpt>
      <trkpt lat="56.835265" lon="13.912032">
        <ele>159.455</ele>
        <time>1970-01-01T01:00:00Z</time>
      </trkpt>
      <trkpt lat="56.835345" lon="13.9121">
        <ele>159.091</ele>
        <time>1970-01-01T01:00:00Z</time>
      </trkpt>
      <trkpt lat="56.835415" lon="13.91218">
        <ele>158.727</ele>
        <time>1970-01-01T01:00:00Z</time>
      </trkpt>
      <trkpt lat="56.835494" lon="13.912209">
        <ele>158.364</ele>
        <time>1970-01-01T01:00:00Z</time>
      </trkpt>
      <trkpt lat="56.835578" lon="13.912188">
        <ele>158</ele>
        <time>1970-01-01T01:00:00Z</time>
      </trkpt>
      <trkpt lat="56.835653" lon="13.912122">
        <ele>157.636</ele>
        <time>1970-01-01T01:00:00Z</time>
      </trkpt>
      <trkpt lat="56.83572" lon="13.912014">
        <ele>157.545</ele>
        <time>1970-01-01T01:00:00Z</time>
      </trkpt>
      <trkpt lat="56.835781" lon="13.911884">
        <ele>157.455</ele>
        <time>1970-01-01T01:00:00Z</time>
      </trkpt>
      <trkpt lat="56.835832" lon="13.91173">
        <ele>157.364</ele>
        <time>1970-01-01T01:00:00Z</time>
      </trkpt>
      <trkpt lat="56.835889" lon="13.911581">
        <ele>157.455</ele>
        <time>1970-01-01T01:00:00Z</time>
      </trkpt>
      <trkpt lat="56.835956" lon="13.91142">
        <ele>157.545</ele>
        <time>1970-01-01T01:00:00Z</time>
      </trkpt>
      <trkpt lat="56.836007" lon="13.911249">
        <ele>157.636</ele>
        <time>1970-01-01T01:00:00Z</time>
      </trkpt>
      <trkpt lat="56.836023" lon="13.911081">
        <ele>158.182</ele>
        <time>1970-01-01T01:00:00Z</time>
      </trkpt>
      <trkpt lat="56.836029" lon="13.910923">
        <ele>158.727</ele>
        <time>1970-01-01T01:00:00Z</time>
      </trkpt>
      <trkpt lat="56.836003" lon="13.910757">
        <ele>159.273</ele>
        <time>1970-01-01T01:00:00Z</time>
      </trkpt>
      <trkpt lat="56.835918" lon="13.910653">
        <ele>159.818</ele>
        <time>1970-01-01T01:00:00Z</time>
      </trkpt>
      <trkpt lat="56.835864" lon="13.910507">
        <ele>160.364</ele>
        <time>1970-01-01T01:00:00Z</time>
      </trkpt>
      <trkpt lat="56.835817" lon="13.910361">
        <ele>160.636</ele>
        <time>1970-01-01T01:00:00Z</time>
      </trkpt>
      <trkpt lat="56.835766" lon="13.910236">
        <ele>160.909</ele>
        <time>1970-01-01T01:00:00Z</time>
      </trkpt>
      <trkpt lat="56.835712" lon="13.9101">
        <ele>161.182</ele>
        <time>1970-01-01T01:00:00Z</time>
      </trkpt>
      <trkpt lat="56.83569" lon="13.909952">
        <ele>161.455</ele>
        <time>1970-01-01T01:00:00Z</time>
      </trkpt>
      <trkpt lat="56.83572" lon="13.909809">
        <ele>161.727</ele>
        <time>1970-01-01T01:00:00Z</time>
      </trkpt>
      <trkpt lat="56.835729" lon="13.909657">
        <ele>162</ele>
        <time>1970-01-01T01:00:00Z</time>
      </trkpt>
      <trkpt lat="56.835747" lon="13.909507">
        <ele>162</ele>
        <time>1970-01-01T01:00:00Z</time>
      </trkpt>
      <trkpt lat="56.83575" lon="13.909334">
        <ele>162</ele>
        <time>1970-01-01T01:00:00Z</time>
      </trkpt>
      <trkpt lat="56.835742" lon="13.909174">
        <ele>162</ele>
        <time>1970-01-01T01:00:00Z</time>
      </trkpt>
      <trkpt lat="56.835731" lon="13.909007">
        <ele>162</ele>
        <time>1970-01-01T01:00:00Z</time>
      </trkpt>
      <trkpt lat="56.83573" lon="13.908837">
        <ele>162</ele>
        <time>1970-01-01T01:00:00Z</time>
      </trkpt>
      <trkpt lat="56.835728" lon="13.908676">
        <ele>161.636</ele>
        <time>1970-01-01T01:00:00Z</time>
      </trkpt>
      <trkpt lat="56.835729" lon="13.908519">
        <ele>161.273</ele>
        <time>1970-01-01T01:00:00Z</time>
      </trkpt>
      <trkpt lat="56.835724" lon="13.908361">
        <ele>160.909</ele>
        <time>1970-01-01T01:00:00Z</time>
      </trkpt>
      <trkpt lat="56.835727" lon="13.908204">
        <ele>160.545</ele>
        <time>1970-01-01T01:00:00Z</time>
      </trkpt>
      <trkpt lat="56.835735" lon="13.908044">
        <ele>160.182</ele>
        <time>1970-01-01T01:00:00Z</time>
      </trkpt>
      <trkpt lat="56.835724" lon="13.907881">
        <ele>159.545</ele>
        <time>1970-01-01T01:00:00Z</time>
      </trkpt>
      <trkpt lat="56.835719" lon="13.907714">
        <ele>158.909</ele>
        <time>1970-01-01T01:00:00Z</time>
      </trkpt>
      <trkpt lat="56.835717" lon="13.907533">
        <ele>158.273</ele>
        <time>1970-01-01T01:00:00Z</time>
      </trkpt>
      <trkpt lat="56.835722" lon="13.90738">
        <ele>157.636</ele>
        <time>1970-01-01T01:00:00Z</time>
      </trkpt>
      <trkpt lat="56.835693" lon="13.907216">
        <ele>157</ele>
        <time>1970-01-01T01:00:00Z</time>
      </trkpt>
      <trkpt lat="56.83565" lon="13.907081">
        <ele>156.182</ele>
        <time>1970-01-01T01:00:00Z</time>
      </trkpt>
      <trkpt lat="56.835618" lon="13.906888">
        <ele>155.727</ele>
        <time>1970-01-01T01:00:00Z</time>
      </trkpt>
      <trkpt lat="56.835612" lon="13.9067">
        <ele>155.273</ele>
        <time>1970-01-01T01:00:00Z</time>
      </trkpt>
      <trkpt lat="56.835623" lon="13.906526">
        <ele>154.818</ele>
        <time>1970-01-01T01:00:00Z</time>
      </trkpt>
      <trkpt lat="56.835644" lon="13.906377">
        <ele>154.364</ele>
        <time>1970-01-01T01:00:00Z</time>
      </trkpt>
      <trkpt lat="56.835654" lon="13.906224">
        <ele>153.818</ele>
        <time>1970-01-01T01:00:00Z</time>
      </trkpt>
      <trkpt lat="56.835663" lon="13.906029">
        <ele>153.545</ele>
        <time>1970-01-01T01:00:00Z</time>
      </trkpt>
      <trkpt lat="56.835677" lon="13.905856">
        <ele>153.273</ele>
        <time>1970-01-01T01:00:00Z</time>
      </trkpt>
      <trkpt lat="56.835705" lon="13.905703">
        <ele>153</ele>
        <time>1970-01-01T01:00:00Z</time>
      </trkpt>
      <trkpt lat="56.835728" lon="13.905548">
        <ele>152.727</ele>
        <time>1970-01-01T01:00:00Z</time>
      </trkpt>
      <trkpt lat="56.835723" lon="13.905365">
        <ele>152.273</ele>
        <time>1970-01-01T01:00:00Z</time>
      </trkpt>
      <trkpt lat="56.835708" lon="13.905169">
        <ele>152</ele>
        <time>1970-01-01T01:00:00Z</time>
      </trkpt>
      <trkpt lat="56.835713" lon="13.904998">
        <ele>151.727</ele>
        <time>1970-01-01T01:00:00Z</time>
      </trkpt>
      <trkpt lat="56.835744" lon="13.904854">
        <ele>151.455</ele>
        <time>1970-01-01T01:00:00Z</time>
      </trkpt>
      <trkpt lat="56.835776" lon="13.90471">
        <ele>151.182</ele>
        <time>1970-01-01T01:00:00Z</time>
      </trkpt>
      <trkpt lat="56.835824" lon="13.904584">
        <ele>150.727</ele>
        <time>1970-01-01T01:00:00Z</time>
      </trkpt>
      <trkpt lat="56.835863" lon="13.904424">
        <ele>150.364</ele>
        <time>1970-01-01T01:00:00Z</time>
      </trkpt>
      <trkpt lat="56.835929" lon="13.9043">
        <ele>150</ele>
        <time>1970-01-01T01:00:00Z</time>
      </trkpt>
      <trkpt lat="56.835991" lon="13.904134">
        <ele>149.636</ele>
        <time>1970-01-01T01:00:00Z</time>
      </trkpt>
      <trkpt lat="56.836029" lon="13.903951">
        <ele>149.182</ele>
        <time>1970-01-01T01:00:00Z</time>
      </trkpt>
      <trkpt lat="56.836067" lon="13.903806">
        <ele>148.727</ele>
        <time>1970-01-01T01:00:00Z</time>
      </trkpt>
      <trkpt lat="56.836116" lon="13.903657">
        <ele>148.455</ele>
        <time>1970-01-01T01:00:00Z</time>
      </trkpt>
      <trkpt lat="56.836159" lon="13.903507">
        <ele>148.182</ele>
        <time>1970-01-01T01:00:00Z</time>
      </trkpt>
      <trkpt lat="56.836219" lon="13.90336">
        <ele>147.909</ele>
        <time>1970-01-01T01:00:00Z</time>
      </trkpt>
      <trkpt lat="56.836282" lon="13.90323">
        <ele>147.636</ele>
        <time>1970-01-01T01:00:00Z</time>
      </trkpt>
      <trkpt lat="56.836355" lon="13.903114">
        <ele>147.364</ele>
        <time>1970-01-01T01:00:00Z</time>
      </trkpt>
      <trkpt lat="56.836437" lon="13.903015">
        <ele>147.273</ele>
        <time>1970-01-01T01:00:00Z</time>
      </trkpt>
      <trkpt lat="56.836512" lon="13.902892">
        <ele>147.182</ele>
        <time>1970-01-01T01:00:00Z</time>
      </trkpt>
      <trkpt lat="56.836586" lon="13.902769">
        <ele>147.091</ele>
        <time>1970-01-01T01:00:00Z</time>
      </trkpt>
      <trkpt lat="56.836645" lon="13.902657">
        <ele>147</ele>
        <time>1970-01-01T01:00:00Z</time>
      </trkpt>
      <trkpt lat="56.836722" lon="13.902557">
        <ele>147</ele>
        <time>1970-01-01T01:00:00Z</time>
      </trkpt>
      <trkpt lat="56.8368" lon="13.902467">
        <ele>147.364</ele>
        <time>1970-01-01T01:00:00Z</time>
      </trkpt>
      <trkpt lat="56.836877" lon="13.902394">
        <ele>147.727</ele>
        <time>1970-01-01T01:00:00Z</time>
      </trkpt>
      <trkpt lat="56.836957" lon="13.902308">
        <ele>148.091</ele>
        <time>1970-01-01T01:00:00Z</time>
      </trkpt>
      <trkpt lat="56.837038" lon="13.902242">
        <ele>148.455</ele>
        <time>1970-01-01T01:00:00Z</time>
      </trkpt>
      <trkpt lat="56.837116" lon="13.902147">
        <ele>148.818</ele>
        <time>1970-01-01T01:00:00Z</time>
      </trkpt>
      <trkpt lat="56.837186" lon="13.902028">
        <ele>149.182</ele>
        <time>1970-01-01T01:00:00Z</time>
      </trkpt>
      <trkpt lat="56.83726" lon="13.90195">
        <ele>149.545</ele>
        <time>1970-01-01T01:00:00Z</time>
      </trkpt>
      <trkpt lat="56.837329" lon="13.901865">
        <ele>149.909</ele>
        <time>1970-01-01T01:00:00Z</time>
      </trkpt>
      <trkpt lat="56.837408" lon="13.901747">
        <ele>150.455</ele>
        <time>1970-01-01T01:00:00Z</time>
      </trkpt>
      <trkpt lat="56.837475" lon="13.901634">
        <ele>151</ele>
        <time>1970-01-01T01:00:00Z</time>
      </trkpt>
      <trkpt lat="56.83753" lon="13.901525">
        <ele>151.545</ele>
        <time>1970-01-01T01:00:00Z</time>
      </trkpt>
      <trkpt lat="56.837598" lon="13.901436">
        <ele>151.727</ele>
        <time>1970-01-01T01:00:00Z</time>
      </trkpt>
      <trkpt lat="56.837661" lon="13.901333">
        <ele>151.818</ele>
        <time>1970-01-01T01:00:00Z</time>
      </trkpt>
      <trkpt lat="56.837726" lon="13.901186">
        <ele>151.909</ele>
        <time>1970-01-01T01:00:00Z</time>
      </trkpt>
      <trkpt lat="56.837789" lon="13.90105">
        <ele>152</ele>
        <time>1970-01-01T01:00:00Z</time>
      </trkpt>
      <trkpt lat="56.837864" lon="13.900954">
        <ele>152.091</ele>
        <time>1970-01-01T01:00:00Z</time>
      </trkpt>
      <trkpt lat="56.837961" lon="13.900969">
        <ele>152.091</ele>
        <time>1970-01-01T01:00:00Z</time>
      </trkpt>
      <trkpt lat="56.838055" lon="13.900994">
        <ele>152.091</ele>
        <time>1970-01-01T01:00:00Z</time>
      </trkpt>
      <trkpt lat="56.838138" lon="13.901076">
        <ele>152.091</ele>
        <time>1970-01-01T01:00:00Z</time>
      </trkpt>
      <trkpt lat="56.838216" lon="13.901159">
        <ele>151.909</ele>
        <time>1970-01-01T01:00:00Z</time>
      </trkpt>
      <trkpt lat="56.838306" lon="13.901259">
        <ele>151.727</ele>
        <time>1970-01-01T01:00:00Z</time>
      </trkpt>
      <trkpt lat="56.838386" lon="13.901348">
        <ele>151.545</ele>
        <time>1970-01-01T01:00:00Z</time>
      </trkpt>
      <trkpt lat="56.838456" lon="13.901447">
        <ele>151.364</ele>
        <time>1970-01-01T01:00:00Z</time>
      </trkpt>
      <trkpt lat="56.838532" lon="13.90158">
        <ele>151.364</ele>
        <time>1970-01-01T01:00:00Z</time>
      </trkpt>
      <trkpt lat="56.838597" lon="13.901727">
        <ele>151.364</ele>
        <time>1970-01-01T01:00:00Z</time>
      </trkpt>
      <trkpt lat="56.838659" lon="13.901886">
        <ele>151.364</ele>
        <time>1970-01-01T01:00:00Z</time>
      </trkpt>
      <trkpt lat="56.838718" lon="13.902017">
        <ele>151.364</ele>
        <time>1970-01-01T01:00:00Z</time>
      </trkpt>
      <trkpt lat="56.838753" lon="13.902163">
        <ele>151.455</ele>
        <time>1970-01-01T01:00:00Z</time>
      </trkpt>
      <trkpt lat="56.838802" lon="13.902297">
        <ele>151.545</ele>
        <time>1970-01-01T01:00:00Z</time>
      </trkpt>
      <trkpt lat="56.83886" lon="13.902426">
        <ele>151.636</ele>
        <time>1970-01-01T01:00:00Z</time>
      </trkpt>
      <trkpt lat="56.838928" lon="13.902557">
        <ele>151.727</ele>
        <time>1970-01-01T01:00:00Z</time>
      </trkpt>
      <trkpt lat="56.838976" lon="13.902707">
        <ele>151.818</ele>
        <time>1970-01-01T01:00:00Z</time>
      </trkpt>
      <trkpt lat="56.839023" lon="13.902839">
        <ele>151.909</ele>
        <time>1970-01-01T01:00:00Z</time>
      </trkpt>
      <trkpt lat="56.83906" lon="13.902973">
        <ele>152</ele>
        <time>1970-01-01T01:00:00Z</time>
      </trkpt>
      <trkpt lat="56.83912" lon="13.903098">
        <ele>152</ele>
        <time>1970-01-01T01:00:00Z</time>
      </trkpt>
      <trkpt lat="56.839168" lon="13.903237">
        <ele>152</ele>
        <time>1970-01-01T01:00:00Z</time>
      </trkpt>
      <trkpt lat="56.839222" lon="13.903365">
        <ele>152</ele>
        <time>1970-01-01T01:00:00Z</time>
      </trkpt>
      <trkpt lat="56.83927" lon="13.90351">
        <ele>152</ele>
        <time>1970-01-01T01:00:00Z</time>
      </trkpt>
      <trkpt lat="56.839297" lon="13.903689">
        <ele>152</ele>
        <time>1970-01-01T01:00:00Z</time>
      </trkpt>
      <trkpt lat="56.839338" lon="13.903866">
        <ele>152.091</ele>
        <time>1970-01-01T01:00:00Z</time>
      </trkpt>
      <trkpt lat="56.839392" lon="13.904003">
        <ele>152.182</ele>
        <time>1970-01-01T01:00:00Z</time>
      </trkpt>
      <trkpt lat="56.83943" lon="13.90414">
        <ele>152.273</ele>
        <time>1970-01-01T01:00:00Z</time>
      </trkpt>
      <trkpt lat="56.839482" lon="13.904283">
        <ele>152.364</ele>
        <time>1970-01-01T01:00:00Z</time>
      </trkpt>
      <trkpt lat="56.839539" lon="13.904401">
        <ele>152.455</ele>
        <time>1970-01-01T01:00:00Z</time>
      </trkpt>
      <trkpt lat="56.839624" lon="13.904518">
        <ele>152.545</ele>
        <time>1970-01-01T01:00:00Z</time>
      </trkpt>
      <trkpt lat="56.839709" lon="13.904626">
        <ele>152.636</ele>
        <time>1970-01-01T01:00:00Z</time>
      </trkpt>
      <trkpt lat="56.839773" lon="13.90472">
        <ele>152.727</ele>
        <time>1970-01-01T01:00:00Z</time>
      </trkpt>
      <trkpt lat="56.839841" lon="13.904803">
        <ele>152.818</ele>
        <time>1970-01-01T01:00:00Z</time>
      </trkpt>
      <trkpt lat="56.839933" lon="13.904888">
        <ele>152.909</ele>
        <time>1970-01-01T01:00:00Z</time>
      </trkpt>
      <trkpt lat="56.840022" lon="13.90496">
        <ele>153.091</ele>
        <time>1970-01-01T01:00:00Z</time>
      </trkpt>
      <trkpt lat="56.840111" lon="13.90503">
        <ele>153.182</ele>
        <time>1970-01-01T01:00:00Z</time>
      </trkpt>
      <trkpt lat="56.840205" lon="13.905096">
        <ele>153.273</ele>
        <time>1970-01-01T01:00:00Z</time>
      </trkpt>
      <trkpt lat="56.840291" lon="13.905159">
        <ele>153.364</ele>
        <time>1970-01-01T01:00:00Z</time>
      </trkpt>
      <trkpt lat="56.840377" lon="13.905245">
        <ele>153.455</ele>
        <time>1970-01-01T01:00:00Z</time>
      </trkpt>
      <trkpt lat="56.840466" lon="13.905341">
        <ele>153.545</ele>
        <time>1970-01-01T01:00:00Z</time>
      </trkpt>
      <trkpt lat="56.840552" lon="13.905432">
        <ele>153.636</ele>
        <time>1970-01-01T01:00:00Z</time>
      </trkpt>
      <trkpt lat="56.84064" lon="13.905537">
        <ele>153.727</ele>
        <time>1970-01-01T01:00:00Z</time>
      </trkpt>
      <trkpt lat="56.840729" lon="13.905636">
        <ele>153.818</ele>
        <time>1970-01-01T01:00:00Z</time>
      </trkpt>
      <trkpt lat="56.840811" lon="13.905742">
        <ele>153.909</ele>
        <time>1970-01-01T01:00:00Z</time>
      </trkpt>
      <trkpt lat="56.840891" lon="13.905853">
        <ele>154.364</ele>
        <time>1970-01-01T01:00:00Z</time>
      </trkpt>
      <trkpt lat="56.840972" lon="13.905963">
        <ele>154.727</ele>
        <time>1970-01-01T01:00:00Z</time>
      </trkpt>
      <trkpt lat="56.84105" lon="13.906079">
        <ele>155.091</ele>
        <time>1970-01-01T01:00:00Z</time>
      </trkpt>
      <trkpt lat="56.841127" lon="13.9062">
        <ele>155.455</ele>
        <time>1970-01-01T01:00:00Z</time>
      </trkpt>
      <trkpt lat="56.841203" lon="13.906331">
        <ele>155.818</ele>
        <time>1970-01-01T01:00:00Z</time>
      </trkpt>
      <trkpt lat="56.841283" lon="13.906451">
        <ele>156.182</ele>
        <time>1970-01-01T01:00:00Z</time>
      </trkpt>
      <trkpt lat="56.841361" lon="13.906564">
        <ele>156.545</ele>
        <time>1970-01-01T01:00:00Z</time>
      </trkpt>
      <trkpt lat="56.841436" lon="13.906675">
        <ele>156.909</ele>
        <time>1970-01-01T01:00:00Z</time>
      </trkpt>
      <trkpt lat="56.841514" lon="13.90679">
        <ele>157.273</ele>
        <time>1970-01-01T01:00:00Z</time>
      </trkpt>
      <trkpt lat="56.841587" lon="13.906916">
        <ele>157.636</ele>
        <time>1970-01-01T01:00:00Z</time>
      </trkpt>
      <trkpt lat="56.841682" lon="13.906998">
        <ele>158</ele>
        <time>1970-01-01T01:00:00Z</time>
      </trkpt>
      <trkpt lat="56.841765" lon="13.907096">
        <ele>158.364</ele>
        <time>1970-01-01T01:00:00Z</time>
      </trkpt>
      <trkpt lat="56.841856" lon="13.9072">
        <ele>158.727</ele>
        <time>1970-01-01T01:00:00Z</time>
      </trkpt>
      <trkpt lat="56.841935" lon="13.907284">
        <ele>159.091</ele>
        <time>1970-01-01T01:00:00Z</time>
      </trkpt>
      <trkpt lat="56.842011" lon="13.907351">
        <ele>159.455</ele>
        <time>1970-01-01T01:00:00Z</time>
      </trkpt>
      <trkpt lat="56.84209" lon="13.907439">
        <ele>159.818</ele>
        <time>1970-01-01T01:00:00Z</time>
      </trkpt>
      <trkpt lat="56.842168" lon="13.907539">
        <ele>160.182</ele>
        <time>1970-01-01T01:00:00Z</time>
      </trkpt>
      <trkpt lat="56.842257" lon="13.907649">
        <ele>160.545</ele>
        <time>1970-01-01T01:00:00Z</time>
      </trkpt>
      <trkpt lat="56.842319" lon="13.907747">
        <ele>160.909</ele>
        <time>1970-01-01T01:00:00Z</time>
      </trkpt>
      <trkpt lat="56.842385" lon="13.907858">
        <ele>161.273</ele>
        <time>1970-01-01T01:00:00Z</time>
      </trkpt>
      <trkpt lat="56.842464" lon="13.907963">
        <ele>161.636</ele>
        <time>1970-01-01T01:00:00Z</time>
      </trkpt>
      <trkpt lat="56.842543" lon="13.908014">
        <ele>162</ele>
        <time>1970-01-01T01:00:00Z</time>
      </trkpt>
      <trkpt lat="56.842635" lon="13.908115">
        <ele>162</ele>
        <time>1970-01-01T01:00:00Z</time>
      </trkpt>
      <trkpt lat="56.842703" lon="13.908258">
        <ele>162.182</ele>
        <time>1970-01-01T01:00:00Z</time>
      </trkpt>
      <trkpt lat="56.842757" lon="13.908374">
        <ele>162.364</ele>
        <time>1970-01-01T01:00:00Z</time>
      </trkpt>
      <trkpt lat="56.842801" lon="13.908527">
        <ele>162.545</ele>
        <time>1970-01-01T01:00:00Z</time>
      </trkpt>
      <trkpt lat="56.84285" lon="13.908672">
        <ele>162.727</ele>
        <time>1970-01-01T01:00:00Z</time>
      </trkpt>
      <trkpt lat="56.842891" lon="13.908813">
        <ele>162.909</ele>
        <time>1970-01-01T01:00:00Z</time>
      </trkpt>
      <trkpt lat="56.842967" lon="13.908957">
        <ele>163.091</ele>
        <time>1970-01-01T01:00:00Z</time>
      </trkpt>
      <trkpt lat="56.843038" lon="13.90906">
        <ele>163.273</ele>
        <time>1970-01-01T01:00:00Z</time>
      </trkpt>
      <trkpt lat="56.843116" lon="13.909132">
        <ele>163.364</ele>
        <time>1970-01-01T01:00:00Z</time>
      </trkpt>
      <trkpt lat="56.843185" lon="13.909217">
        <ele>163.455</ele>
        <time>1970-01-01T01:00:00Z</time>
      </trkpt>
      <trkpt lat="56.84326" lon="13.90928">
        <ele>163.545</ele>
        <time>1970-01-01T01:00:00Z</time>
      </trkpt>
      <trkpt lat="56.843338" lon="13.909388">
        <ele>163.636</ele>
        <time>1970-01-01T01:00:00Z</time>
      </trkpt>
      <trkpt lat="56.843403" lon="13.909494">
        <ele>163.545</ele>
        <time>1970-01-01T01:00:00Z</time>
      </trkpt>
      <trkpt lat="56.843439" lon="13.909646">
        <ele>163.455</ele>
        <time>1970-01-01T01:00:00Z</time>
      </trkpt>
      <trkpt lat="56.843461" lon="13.909793">
        <ele>163.455</ele>
        <time>1970-01-01T01:00:00Z</time>
      </trkpt>
      <trkpt lat="56.843451" lon="13.909943">
        <ele>163.455</ele>
        <time>1970-01-01T01:00:00Z</time>
      </trkpt>
      <trkpt lat="56.84344" lon="13.910105">
        <ele>163.455</ele>
        <time>1970-01-01T01:00:00Z</time>
      </trkpt>
      <trkpt lat="56.843418" lon="13.910287">
        <ele>163.455</ele>
        <time>1970-01-01T01:00:00Z</time>
      </trkpt>
      <trkpt lat="56.843395" lon="13.910437">
        <ele>163.455</ele>
        <time>1970-01-01T01:00:00Z</time>
      </trkpt>
      <trkpt lat="56.843368" lon="13.910605">
        <ele>163.727</ele>
        <time>1970-01-01T01:00:00Z</time>
      </trkpt>
      <trkpt lat="56.843343" lon="13.910763">
        <ele>164</ele>
        <time>1970-01-01T01:00:00Z</time>
      </trkpt>
      <trkpt lat="56.843329" lon="13.910914">
        <ele>164.273</ele>
        <time>1970-01-01T01:00:00Z</time>
      </trkpt>
      <trkpt lat="56.84332" lon="13.911073">
        <ele>164.545</ele>
        <time>1970-01-01T01:00:00Z</time>
      </trkpt>
      <trkpt lat="56.84332" lon="13.911233">
        <ele>164.818</ele>
        <time>1970-01-01T01:00:00Z</time>
      </trkpt>
      <trkpt lat="56.843314" lon="13.911423">
        <ele>165.091</ele>
        <time>1970-01-01T01:00:00Z</time>
      </trkpt>
      <trkpt lat="56.843335" lon="13.911588">
        <ele>165.273</ele>
        <time>1970-01-01T01:00:00Z</time>
      </trkpt>
      <trkpt lat="56.843365" lon="13.911737">
        <ele>165.455</ele>
        <time>1970-01-01T01:00:00Z</time>
      </trkpt>
      <trkpt lat="56.843387" lon="13.911929">
        <ele>165.636</ele>
        <time>1970-01-01T01:00:00Z</time>
      </trkpt>
      <trkpt lat="56.843408" lon="13.912112">
        <ele>165.818</ele>
        <time>1970-01-01T01:00:00Z</time>
      </trkpt>
      <trkpt lat="56.843415" lon="13.912266">
        <ele>166</ele>
        <time>1970-01-01T01:00:00Z</time>
      </trkpt>
      <trkpt lat="56.843417" lon="13.912414">
        <ele>166</ele>
        <time>1970-01-01T01:00:00Z</time>
      </trkpt>
      <trkpt lat="56.843405" lon="13.912598">
        <ele>166</ele>
        <time>1970-01-01T01:00:00Z</time>
      </trkpt>
      <trkpt lat="56.843385" lon="13.912781">
        <ele>166</ele>
        <time>1970-01-01T01:00:00Z</time>
      </trkpt>
      <trkpt lat="56.843375" lon="13.912929">
        <ele>166</ele>
        <time>1970-01-01T01:00:00Z</time>
      </trkpt>
      <trkpt lat="56.843374" lon="13.913118">
        <ele>165.909</ele>
        <time>1970-01-01T01:00:00Z</time>
      </trkpt>
      <trkpt lat="56.843365" lon="13.913283">
        <ele>165.818</ele>
        <time>1970-01-01T01:00:00Z</time>
      </trkpt>
      <trkpt lat="56.843345" lon="13.91347">
        <ele>165.727</ele>
        <time>1970-01-01T01:00:00Z</time>
      </trkpt>
      <trkpt lat="56.843321" lon="13.913634">
        <ele>165.636</ele>
        <time>1970-01-01T01:00:00Z</time>
      </trkpt>
      <trkpt lat="56.843301" lon="13.913805">
        <ele>165.545</ele>
        <time>1970-01-01T01:00:00Z</time>
      </trkpt>
      <trkpt lat="56.843266" lon="13.913971">
        <ele>165.273</ele>
        <time>1970-01-01T01:00:00Z</time>
      </trkpt>
      <trkpt lat="56.843234" lon="13.91414">
        <ele>165</ele>
        <time>1970-01-01T01:00:00Z</time>
      </trkpt>
      <trkpt lat="56.843215" lon="13.914315">
        <ele>164.727</ele>
        <time>1970-01-01T01:00:00Z</time>
      </trkpt>
      <trkpt lat="56.843203" lon="13.914477">
        <ele>164.455</ele>
        <time>1970-01-01T01:00:00Z</time>
      </trkpt>
      <trkpt lat="56.843211" lon="13.914643">
        <ele>164.182</ele>
        <time>1970-01-01T01:00:00Z</time>
      </trkpt>
      <trkpt lat="56.843239" lon="13.914811">
        <ele>163.909</ele>
        <time>1970-01-01T01:00:00Z</time>
      </trkpt>
      <trkpt lat="56.843268" lon="13.91495">
        <ele>163.727</ele>
        <time>1970-01-01T01:00:00Z</time>
      </trkpt>
      <trkpt lat="56.843298" lon="13.915098">
        <ele>163.545</ele>
        <time>1970-01-01T01:00:00Z</time>
      </trkpt>
      <trkpt lat="56.843329" lon="13.915257">
        <ele>163.364</ele>
        <time>1970-01-01T01:00:00Z</time>
      </trkpt>
      <trkpt lat="56.843358" lon="13.915411">
        <ele>163.182</ele>
        <time>1970-01-01T01:00:00Z</time>
      </trkpt>
      <trkpt lat="56.843387" lon="13.915558">
        <ele>163</ele>
        <time>1970-01-01T01:00:00Z</time>
      </trkpt>
      <trkpt lat="56.843412" lon="13.91571">
        <ele>163</ele>
        <time>1970-01-01T01:00:00Z</time>
      </trkpt>
      <trkpt lat="56.843443" lon="13.915859">
        <ele>163</ele>
        <time>1970-01-01T01:00:00Z</time>
      </trkpt>
      <trkpt lat="56.843479" lon="13.916007">
        <ele>163</ele>
        <time>1970-01-01T01:00:00Z</time>
      </trkpt>
      <trkpt lat="56.843502" lon="13.916161">
        <ele>163</ele>
        <time>1970-01-01T01:00:00Z</time>
      </trkpt>
      <trkpt lat="56.843523" lon="13.916312">
        <ele>163</ele>
        <time>1970-01-01T01:00:00Z</time>
      </trkpt>
      <trkpt lat="56.843545" lon="13.91646">
        <ele>163</ele>
        <time>1970-01-01T01:00:00Z</time>
      </trkpt>
      <trkpt lat="56.843563" lon="13.916615">
        <ele>162.909</ele>
        <time>1970-01-01T01:00:00Z</time>
      </trkpt>
      <trkpt lat="56.843578" lon="13.916809">
        <ele>162.818</ele>
        <time>1970-01-01T01:00:00Z</time>
      </trkpt>
      <trkpt lat="56.843533" lon="13.916942">
        <ele>162.727</ele>
        <time>1970-01-01T01:00:00Z</time>
      </trkpt>
      <trkpt lat="56.843458" lon="13.917039">
        <ele>162.636</ele>
        <time>1970-01-01T01:00:00Z</time>
      </trkpt>
      <trkpt lat="56.843388" lon="13.917126">
        <ele>162.545</ele>
        <time>1970-01-01T01:00:00Z</time>
      </trkpt>
      <trkpt lat="56.84333" lon="13.917233">
        <ele>162.818</ele>
        <time>1970-01-01T01:00:00Z</time>
      </trkpt>
      <trkpt lat="56.843251" lon="13.917359">
        <ele>163.091</ele>
        <time>1970-01-01T01:00:00Z</time>
      </trkpt>
      <trkpt lat="56.84319" lon="13.917469">
        <ele>163.364</ele>
        <time>1970-01-01T01:00:00Z</time>
      </trkpt>
      <trkpt lat="56.843122" lon="13.917584">
        <ele>163.545</ele>
        <time>1970-01-01T01:00:00Z</time>
      </trkpt>
      <trkpt lat="56.843028" lon="13.917677">
        <ele>163.727</ele>
        <time>1970-01-01T01:00:00Z</time>
      </trkpt>
      <trkpt lat="56.842937" lon="13.917784">
        <ele>163.909</ele>
        <time>1970-01-01T01:00:00Z</time>
      </trkpt>
      <trkpt lat="56.842867" lon="13.917868">
        <ele>164.182</ele>
        <time>1970-01-01T01:00:00Z</time>
      </trkpt>
      <trkpt lat="56.842804" lon="13.917971">
        <ele>164.455</ele>
        <time>1970-01-01T01:00:00Z</time>
      </trkpt>
      <trkpt lat="56.842745" lon="13.918092">
        <ele>164.727</ele>
        <time>1970-01-01T01:00:00Z</time>
      </trkpt>
      <trkpt lat="56.842677" lon="13.918189">
        <ele>165</ele>
        <time>1970-01-01T01:00:00Z</time>
      </trkpt>
      <trkpt lat="56.842615" lon="13.918288">
        <ele>165.273</ele>
        <time>1970-01-01T01:00:00Z</time>
      </trkpt>
      <trkpt lat="56.84254" lon="13.918424">
        <ele>165.182</ele>
        <time>1970-01-01T01:00:00Z</time>
      </trkpt>
      <trkpt lat="56.84246" lon="13.918545">
        <ele>164.818</ele>
        <time>1970-01-01T01:00:00Z</time>
      </trkpt>
      <trkpt lat="56.842398" lon="13.918641">
        <ele>164.455</ele>
        <time>1970-01-01T01:00:00Z</time>
      </trkpt>
      <trkpt lat="56.842334" lon="13.918738">
        <ele>164.182</ele>
        <time>1970-01-01T01:00:00Z</time>
      </trkpt>
      <trkpt lat="56.842264" lon="13.918853">
        <ele>163.909</ele>
        <time>1970-01-01T01:00:00Z</time>
      </trkpt>
      <trkpt lat="56.842193" lon="13.91895">
        <ele>163.636</ele>
        <time>1970-01-01T01:00:00Z</time>
      </trkpt>
      <trkpt lat="56.842122" lon="13.919044">
        <ele>163.364</ele>
        <time>1970-01-01T01:00:00Z</time>
      </trkpt>
      <trkpt lat="56.842061" lon="13.919148">
        <ele>163</ele>
        <time>1970-01-01T01:00:00Z</time>
      </trkpt>
      <trkpt lat="56.841984" lon="13.919275">
        <ele>162.636</ele>
        <time>1970-01-01T01:00:00Z</time>
      </trkpt>
      <trkpt lat="56.841916" lon="13.919371">
        <ele>162.273</ele>
        <time>1970-01-01T01:00:00Z</time>
      </trkpt>
      <trkpt lat="56.841854" lon="13.919476">
        <ele>161.909</ele>
        <time>1970-01-01T01:00:00Z</time>
      </trkpt>
      <trkpt lat="56.841789" lon="13.919569">
        <ele>161.545</ele>
        <time>1970-01-01T01:00:00Z</time>
      </trkpt>
      <trkpt lat="56.841713" lon="13.919699">
        <ele>161.455</ele>
        <time>1970-01-01T01:00:00Z</time>
      </trkpt>
      <trkpt lat="56.84164" lon="13.919824">
        <ele>161.364</ele>
        <time>1970-01-01T01:00:00Z</time>
      </trkpt>
      <trkpt lat="56.841566" lon="13.919949">
        <ele>161.182</ele>
        <time>1970-01-01T01:00:00Z</time>
      </trkpt>
      <trkpt lat="56.841491" lon="13.920073">
        <ele>161</ele>
        <time>1970-01-01T01:00:00Z</time>
      </trkpt>
      <trkpt lat="56.841409" lon="13.920194">
        <ele>160.818</ele>
        <time>1970-01-01T01:00:00Z</time>
      </trkpt>
      <trkpt lat="56.841335" lon="13.92032">
        <ele>160.636</ele>
        <time>1970-01-01T01:00:00Z</time>
      </trkpt>
      <trkpt lat="56.841262" lon="13.92045">
        <ele>160.545</ele>
        <time>1970-01-01T01:00:00Z</time>
      </trkpt>
      <trkpt lat="56.841189" lon="13.920569">
        <ele>160.455</ele>
        <time>1970-01-01T01:00:00Z</time>
      </trkpt>
      <trkpt lat="56.841124" lon="13.920669">
        <ele>160.545</ele>
        <time>1970-01-01T01:00:00Z</time>
      </trkpt>
      <trkpt lat="56.841061" lon="13.920798">
        <ele>160.636</ele>
        <time>1970-01-01T01:00:00Z</time>
      </trkpt>
      <trkpt lat="56.841004" lon="13.920933">
        <ele>160.727</ele>
        <time>1970-01-01T01:00:00Z</time>
      </trkpt>
      <trkpt lat="56.840932" lon="13.921067">
        <ele>160.818</ele>
        <time>1970-01-01T01:00:00Z</time>
      </trkpt>
      <trkpt lat="56.840849" lon="13.921185">
        <ele>160.909</ele>
        <time>1970-01-01T01:00:00Z</time>
      </trkpt>
      <trkpt lat="56.840773" lon="13.92132">
        <ele>161.091</ele>
        <time>1970-01-01T01:00:00Z</time>
      </trkpt>
      <trkpt lat="56.840723" lon="13.921484">
        <ele>161.182</ele>
        <time>1970-01-01T01:00:00Z</time>
      </trkpt>
      <trkpt lat="56.840694" lon="13.921624">
        <ele>161.273</ele>
        <time>1970-01-01T01:00:00Z</time>
      </trkpt>
      <trkpt lat="56.840649" lon="13.92176">
        <ele>161.364</ele>
        <time>1970-01-01T01:00:00Z</time>
      </trkpt>
      <trkpt lat="56.840573" lon="13.921854">
        <ele>161.364</ele>
        <time>1970-01-01T01:00:00Z</time>
      </trkpt>
      <trkpt lat="56.840488" lon="13.921916">
        <ele>161.364</ele>
        <time>1970-01-01T01:00:00Z</time>
      </trkpt>
      <trkpt lat="56.840401" lon="13.921891">
        <ele>161.182</ele>
        <time>1970-01-01T01:00:00Z</time>
      </trkpt>
      <trkpt lat="56.840302" lon="13.921938">
        <ele>161</ele>
        <time>1970-01-01T01:00:00Z</time>
      </trkpt>
      <trkpt lat="56.840241" lon="13.922054">
        <ele>160.818</ele>
        <time>1970-01-01T01:00:00Z</time>
      </trkpt>
      <trkpt lat="56.840174" lon="13.922163">
        <ele>160.636</ele>
        <time>1970-01-01T01:00:00Z</time>
      </trkpt>
      <trkpt lat="56.840105" lon="13.92226">
        <ele>160.455</ele>
        <time>1970-01-01T01:00:00Z</time>
      </trkpt>
      <trkpt lat="56.840044" lon="13.922368">
        <ele>160.273</ele>
        <time>1970-01-01T01:00:00Z</time>
      </trkpt>
      <trkpt lat="56.839984" lon="13.922495">
        <ele>160</ele>
        <time>1970-01-01T01:00:00Z</time>
      </trkpt>
      <trkpt lat="56.839913" lon="13.922615">
        <ele>159.545</ele>
        <time>1970-01-01T01:00:00Z</time>
      </trkpt>
      <trkpt lat="56.83984" lon="13.92272">
        <ele>159.091</ele>
        <time>1970-01-01T01:00:00Z</time>
      </trkpt>
      <trkpt lat="56.839765" lon="13.922838">
        <ele>158.727</ele>
        <time>1970-01-01T01:00:00Z</time>
      </trkpt>
      <trkpt lat="56.839689" lon="13.92296">
        <ele>158.364</ele>
        <time>1970-01-01T01:00:00Z</time>
      </trkpt>
      <trkpt lat="56.839619" lon="13.923069">
        <ele>158</ele>
        <time>1970-01-01T01:00:00Z</time>
      </trkpt>
      <trkpt lat="56.83955" lon="13.92319">
        <ele>157.636</ele>
        <time>1970-01-01T01:00:00Z</time>
      </trkpt>
      <trkpt lat="56.839467" lon="13.923294">
        <ele>157.273</ele>
        <time>1970-01-01T01:00:00Z</time>
      </trkpt>
      <trkpt lat="56.83939" lon="13.923395">
        <ele>156.818</ele>
        <time>1970-01-01T01:00:00Z</time>
      </trkpt>
      <trkpt lat="56.839318" lon="13.923488">
        <ele>156.364</ele>
        <time>1970-01-01T01:00:00Z</time>
      </trkpt>
      <trkpt lat="56.839246" lon="13.923603">
        <ele>155.909</ele>
        <time>1970-01-01T01:00:00Z</time>
      </trkpt>
      <trkpt lat="56.839172" lon="13.923715">
        <ele>155.636</ele>
        <time>1970-01-01T01:00:00Z</time>
      </trkpt>
      <trkpt lat="56.839094" lon="13.923833">
        <ele>155.636</ele>
        <time>1970-01-01T01:00:00Z</time>
      </trkpt>
      <trkpt lat="56.839021" lon="13.923941">
        <ele>155.636</ele>
        <time>1970-01-01T01:00:00Z</time>
      </trkpt>
      <trkpt lat="56.838954" lon="13.924087">
        <ele>155.636</ele>
        <time>1970-01-01T01:00:00Z</time>
      </trkpt>
      <trkpt lat="56.838892" lon="13.924204">
        <ele>155.545</ele>
        <time>1970-01-01T01:00:00Z</time>
      </trkpt>
      <trkpt lat="56.83882" lon="13.92432">
        <ele>155.455</ele>
        <time>1970-01-01T01:00:00Z</time>
      </trkpt>
      <trkpt lat="56.838754" lon="13.924423">
        <ele>155.364</ele>
        <time>1970-01-01T01:00:00Z</time>
      </trkpt>
      <trkpt lat="56.838684" lon="13.924521">
        <ele>155.273</ele>
        <time>1970-01-01T01:00:00Z</time>
      </trkpt>
      <trkpt lat="56.838595" lon="13.924631">
        <ele>155.273</ele>
        <time>1970-01-01T01:00:00Z</time>
      </trkpt>
      <trkpt lat="56.838524" lon="13.924723">
        <ele>155.273</ele>
        <time>1970-01-01T01:00:00Z</time>
      </trkpt>
      <trkpt lat="56.838453" lon="13.924824">
        <ele>155.273</ele>
        <time>1970-01-01T01:00:00Z</time>
      </trkpt>
      <trkpt lat="56.838387" lon="13.924934">
        <ele>155.273</ele>
        <time>1970-01-01T01:00:00Z</time>
      </trkpt>
      <trkpt lat="56.838336" lon="13.925059">
        <ele>155.273</ele>
        <time>1970-01-01T01:00:00Z</time>
      </trkpt>
      <trkpt lat="56.838257" lon="13.925185">
        <ele>155.273</ele>
        <time>1970-01-01T01:00:00Z</time>
      </trkpt>
      <trkpt lat="56.838166" lon="13.925283">
        <ele>155.273</ele>
        <time>1970-01-01T01:00:00Z</time>
      </trkpt>
      <trkpt lat="56.838089" lon="13.925352">
        <ele>155.364</ele>
        <time>1970-01-01T01:00:00Z</time>
      </trkpt>
      <trkpt lat="56.838022" lon="13.925447">
        <ele>155.455</ele>
        <time>1970-01-01T01:00:00Z</time>
      </trkpt>
      <trkpt lat="56.837952" lon="13.925581">
        <ele>155.545</ele>
        <time>1970-01-01T01:00:00Z</time>
      </trkpt>
      <trkpt lat="56.837877" lon="13.925695">
        <ele>155.636</ele>
        <time>1970-01-01T01:00:00Z</time>
      </trkpt>
      <trkpt lat="56.837793" lon="13.925798">
        <ele>155.636</ele>
        <time>1970-01-01T01:00:00Z</time>
      </trkpt>
      <trkpt lat="56.83772" lon="13.92594">
        <ele>155.636</ele>
        <time>1970-01-01T01:00:00Z</time>
      </trkpt>
      <trkpt lat="56.837659" lon="13.926041">
        <ele>155.636</ele>
        <time>1970-01-01T01:00:00Z</time>
      </trkpt>
      <trkpt lat="56.837583" lon="13.926133">
        <ele>155.636</ele>
        <time>1970-01-01T01:00:00Z</time>
      </trkpt>
      <trkpt lat="56.837512" lon="13.92624">
        <ele>155.455</ele>
        <time>1970-01-01T01:00:00Z</time>
      </trkpt>
      <trkpt lat="56.837433" lon="13.926355">
        <ele>155.273</ele>
        <time>1970-01-01T01:00:00Z</time>
      </trkpt>
      <trkpt lat="56.837353" lon="13.926467">
        <ele>155.091</ele>
        <time>1970-01-01T01:00:00Z</time>
      </trkpt>
      <trkpt lat="56.837275" lon="13.926568">
        <ele>154.909</ele>
        <time>1970-01-01T01:00:00Z</time>
      </trkpt>
      <trkpt lat="56.837178" lon="13.926609">
        <ele>154.727</ele>
        <time>1970-01-01T01:00:00Z</time>
      </trkpt>
      <trkpt lat="56.83707" lon="13.926586">
        <ele>154.545</ele>
        <time>1970-01-01T01:00:00Z</time>
      </trkpt>
      <trkpt lat="56.836976" lon="13.926708">
        <ele>154.364</ele>
        <time>1970-01-01T01:00:00Z</time>
      </trkpt>
      <trkpt lat="56.836896" lon="13.926844">
        <ele>154.273</ele>
        <time>1970-01-01T01:00:00Z</time>
      </trkpt>
      <trkpt lat="56.836821" lon="13.926977">
        <ele>154.182</ele>
        <time>1970-01-01T01:00:00Z</time>
      </trkpt>
      <trkpt lat="56.836756" lon="13.9271">
        <ele>154.091</ele>
        <time>1970-01-01T01:00:00Z</time>
      </trkpt>
      <trkpt lat="56.836682" lon="13.927219">
        <ele>154</ele>
        <time>1970-01-01T01:00:00Z</time>
      </trkpt>
      <trkpt lat="56.836606" lon="13.927331">
        <ele>153.909</ele>
        <time>1970-01-01T01:00:00Z</time>
      </trkpt>
      <trkpt lat="56.836536" lon="13.927455">
        <ele>153.727</ele>
        <time>1970-01-01T01:00:00Z</time>
      </trkpt>
      <trkpt lat="56.836458" lon="13.927579">
        <ele>153.545</ele>
        <time>1970-01-01T01:00:00Z</time>
      </trkpt>
      <trkpt lat="56.836376" lon="13.927698">
        <ele>153.364</ele>
        <time>1970-01-01T01:00:00Z</time>
      </trkpt>
      <trkpt lat="56.836298" lon="13.927815">
        <ele>153.182</ele>
        <time>1970-01-01T01:00:00Z</time>
      </trkpt>
      <trkpt lat="56.836215" lon="13.927939">
        <ele>153</ele>
        <time>1970-01-01T01:00:00Z</time>
      </trkpt>
      <trkpt lat="56.836138" lon="13.92807">
        <ele>152.818</ele>
        <time>1970-01-01T01:00:00Z</time>
      </trkpt>
      <trkpt lat="56.836062" lon="13.928195">
        <ele>152.636</ele>
        <time>1970-01-01T01:00:00Z</time>
      </trkpt>
      <trkpt lat="56.83599" lon="13.928318">
        <ele>152.455</ele>
        <time>1970-01-01T01:00:00Z</time>
      </trkpt>
      <trkpt lat="56.835921" lon="13.928428">
        <ele>152.273</ele>
        <time>1970-01-01T01:00:00Z</time>
      </trkpt>
      <trkpt lat="56.835847" lon="13.928549">
        <ele>152.091</ele>
        <time>1970-01-01T01:00:00Z</time>
      </trkpt>
      <trkpt lat="56.835774" lon="13.928664">
        <ele>151.818</ele>
        <time>1970-01-01T01:00:00Z</time>
      </trkpt>
      <trkpt lat="56.8357" lon="13.928767">
        <ele>151.636</ele>
        <time>1970-01-01T01:00:00Z</time>
      </trkpt>
      <trkpt lat="56.835634" lon="13.928873">
        <ele>151.455</ele>
        <time>1970-01-01T01:00:00Z</time>
      </trkpt>
      <trkpt lat="56.83557" lon="13.928978">
        <ele>151.273</ele>
        <time>1970-01-01T01:00:00Z</time>
      </trkpt>
      <trkpt lat="56.835499" lon="13.929092">
        <ele>151</ele>
        <time>1970-01-01T01:00:00Z</time>
      </trkpt>
      <trkpt lat="56.835427" lon="13.929196">
        <ele>150.727</ele>
        <time>1970-01-01T01:00:00Z</time>
      </trkpt>
      <trkpt lat="56.835354" lon="13.929332">
        <ele>150.455</ele>
        <time>1970-01-01T01:00:00Z</time>
      </trkpt>
      <trkpt lat="56.835266" lon="13.929468">
        <ele>150.182</ele>
        <time>1970-01-01T01:00:00Z</time>
      </trkpt>
      <trkpt lat="56.835192" lon="13.929617">
        <ele>149.909</ele>
        <time>1970-01-01T01:00:00Z</time>
      </trkpt>
      <trkpt lat="56.83512" lon="13.929738">
        <ele>149.636</ele>
        <time>1970-01-01T01:00:00Z</time>
      </trkpt>
      <trkpt lat="56.835045" lon="13.929859">
        <ele>149.455</ele>
        <time>1970-01-01T01:00:00Z</time>
      </trkpt>
      <trkpt lat="56.834917" lon="13.930021">
        <ele>149.091</ele>
        <time>1970-01-01T01:00:00Z</time>
      </trkpt>
      <trkpt lat="56.834832" lon="13.929968">
        <ele>148.727</ele>
        <time>1970-01-01T01:00:00Z</time>
      </trkpt>
      <trkpt lat="56.834773" lon="13.929846">
        <ele>148.6</ele>
        <time>1970-01-01T01:00:00Z</time>
      </trkpt>
      <trkpt lat="56.83471" lon="13.929747">
        <ele>148.444</ele>
        <time>1970-01-01T01:00:00Z</time>
      </trkpt>
      <trkpt lat="56.834633" lon="13.929606">
        <ele>148.375</ele>
        <time>1970-01-01T01:00:00Z</time>
      </trkpt>
      <trkpt lat="56.834558" lon="13.929461">
        <ele>148.286</ele>
        <time>1970-01-01T01:00:00Z</time>
      </trkpt>
      <trkpt lat="56.834491" lon="13.929314">
        <ele>148.167</ele>
        <time>1970-01-01T01:00:00Z</time>
      </trkpt>
    </trkseg>
  </trk>
</gpx>